Find SDS-4

NORAD ID: 38339 Int'l Des: 2012-025 Owner: JAXA Country: J operational
LEOCIRCULARRETROGRADESSO

当前视图

正在加载3D地球...

关于 SDS-4

正在加载描述...

即将过境

Passes for default location (London). Set your location on the main map for personalized predictions.

高度历史

Loading altitude history...

两行轨道根数

1 38339U 12025C 26146.28230296 .00000464 00000-0 75376-4 0 9993
2 38339 98.1350 242.0656 0007174 19.0130 341.1346 14.75776962752754
Epoch: May 26, 2026 • Age: 7 hours

当前状态

高度 655.0 km
速度 7.54 km/s
星下点 77.49°N, 12.05°E
发射日期 May 17, 2012
运行时间 14 years
类型 other

技术详情

分类 Payload
质量 50.00 kg
干质量 50.00 kg
总质量 50.00 kg
长度 0.50 m
直径 0.50 m
跨度 1.50 m
形状 Box + 2 pan
制造商 JAXA
平台类型 SDS-1
阶段状态 Renamed
所有者/国家 JAXA/J

Most Searched